DW5212 Weather Reports


time (UTC)temp
C
wind
direction
speed
KPH
gust
KPH
rain 1hr
cm
rain 24hr
cm
rain mn
cm
humidity
%
barometer
mb
20260510193510 28 241 0.0 6.4 0.00 0.13 0.00 70 1015.4
20260510193011 28 86 1.6 4.8 0.00 0.13 0.00 70 1015.3
20260510192509 28 110 1.6 4.8 0.00 0.13 0.00 73 1015.2
20260510192012 28 219 1.6 8.0 0.00 0.13 0.00 75 1015.2
20260510191510 27 93 1.6 8.0 0.00 0.13 0.00 75 1015.3
20260510191010 27 279 1.6 8.0 0.00 0.13 0.00 74 1015.2
20260510190510 27 219 1.6 8.0 0.00 0.13 0.00 75 1015.1
20260510190010 27 233 1.6 12.9 0.00 0.13 0.00 74 1015.0
20260510185507 27 67 1.6 12.9 0.00 0.13 0.00 75 1015.1
20260510185008 27 206 1.6 6.4 0.00 0.13 0.00 74 1015.1
20260510184508 27 109 1.6 6.4 0.00 0.13 0.00 74 1015.1
20260510184008 27 202 3.2 8.0 0.00 0.13 0.00 75 1015.2
20260510183508 27 196 3.2 8.0 0.00 0.13 0.00 75 1015.3
20260510183010 27 171 3.2 6.4 0.00 0.13 0.00 77 1015.2
20260510182507 27 211 3.2 9.7 0.00 0.13 0.00 76 1015.1
20260510181510 26 107 3.2 12.9 0.00 0.13 0.00 78 1015.0
20260510181008 26 128 1.6 12.9 0.00 0.13 0.00 79 1014.9
20260510180509 26 96 1.6 6.4 0.00 0.13 0.00 79 1015.0
20260510180009 26 101 3.2 8.0 0.00 0.13 0.00 79 1015.2
20260510175507 26 270 4.8 11.3 0.00 0.13 0.00 79 1015.1
20260510174510 26 200 1.6 6.4 0.00 0.13 0.00 81 1014.9
20260510174009 25 193 1.6 6.4 0.00 0.13 0.00 81 1015.0
20260510173507 25 177 3.2 6.4 0.00 0.13 0.00 81 1015.1
20260510173010 25 144 3.2 6.4 0.00 0.13 0.00 83 1015.2
20260510171507 25 208 1.6 6.4 0.00 0.13 0.00 83 1015.7
20260510171007 25 275 1.6 6.4 0.00 0.13 0.00 84 1015.9
20260510170507 25 99 3.2 9.7 0.00 0.13 0.00 84 1015.8
20260510170009 25 95 3.2 9.7 0.00 0.13 0.00 85 1015.9
20260510165508 25 46 1.6 8.0 0.00 0.13 0.00 86 1016.0
20260510165009 24 65 1.6 4.8 0.00 0.13 0.00 89 1016.1
20260510164509 23 229 1.6 6.4 0.00 0.13 0.00 91 1016.2
20260510164008 23 218 1.6 6.4 0.00 0.13 0.00 91 1016.3
20260510163509 22 225 0.0 3.2 0.00 0.13 0.00 90 1016.2
20260510161507 22 360 0.0 0.0 0.00 0.13 0.00 92 1016.4
20260510161008 22 22 0.0 0.0 0.00 0.13 0.00 92 1016.5
20260510160507 22 63 0.0 0.0 0.00 0.13 0.00 92 1016.5
20260510160009 22 63 0.0 0.0 0.00 0.13 0.00 92 1016.3
20260510155507 22 42 1.6 3.2 0.00 0.13 0.00 92 1016.4
20260510155008 22 42 1.6 6.4 0.00 0.13 0.00 92 1016.4
20260510154508 22 117 1.6 3.2 0.00 0.13 0.00 93 1016.4
20260510154009 21 72 1.6 4.8 0.00 0.13 0.00 94 1016.4
20260510153506 21 134 3.2 6.4 0.00 0.13 0.00 93 1016.6
20260510153009 21 140 3.2 6.4 0.00 0.13 0.00 94 1016.5
20260510151509 21 171 0.0 3.2 0.00 0.13 0.00 96 1016.8
20260510151010 20 85 0.0 3.2 0.00 0.13 0.00 95 1017.0
20260510150507 20 57 0.0 0.0 0.00 0.13 0.00 95 1017.1
20260510150010 20 108 0.0 0.0 0.00 0.13 0.00 95 1017.1
20260510145507 20 108 0.0 0.0 0.00 0.13 0.00 96 1017.0
20260510145010 20 120 0.0 0.0 0.00 0.13 0.00 96 1017.1
20260510144509 20 120 0.0 0.0 0.00 0.13 0.00 95 1017.0
20260510144007 20 124 0.0 0.0 0.00 0.13 0.00 95 1017.1
20260510143507 20 124 0.0 0.0 0.00 0.13 0.00 95 1017.1
20260510142508 20 128 0.0 0.0 0.00 0.13 0.00 96 1017.3
20260510142009 20 175 0.0 0.0 0.00 0.13 0.00 96 1017.4
20260510141507 20 175 0.0 0.0 0.00 0.13 0.00 96 1017.3
20260510140011 20 180 0.0 0.0 0.00 0.13 0.00 96 1017.0
20260510135010 20 180 0.0 0.0 0.00 0.13 0.00 96 1017.2
20260510134508 19 180 0.0 0.0 0.00 0.13 0.00 96 1017.3
20260510134009 19 180 0.0 0.0 0.00 0.13 0.00 96 1017.4
20260510133008 19 180 0.0 0.0 0.00 0.13 0.00 96 1017.4
20260510132507 19 180 0.0 0.0 0.00 0.13 0.00 96 1017.3
20260510131507 19 180 0.0 0.0 0.00 0.13 0.00 96 1017.2
20260510131011 19 180 0.0 0.0 0.00 0.13 0.00 96 1017.2
20260510130508 19 180 0.0 0.0 0.00 0.13 0.00 96 1017.0
20260510125508 19 180 0.0 0.0 0.00 0.13 0.00 96 1017.0
20260510125007 19 180 0.0 1.6 0.00 0.13 0.00 96 1017.0
20260510124511 19 173 0.0 0.0 0.00 0.13 0.00 96 1016.9
20260510124007 19 173 0.0 0.0 0.00 0.13 0.00 96 1016.7
20260510123507 19 173 0.0 0.0 0.00 0.13 0.00 96 1016.6
20260510123009 19 173 0.0 0.0 0.00 0.13 0.00 96 1016.3
20260510122508 19 173 0.0 0.0 0.00 0.13 0.00 96 1016.1
20260510122008 19 173 0.0 0.0 0.00 0.13 0.00 96 1016.1
20260510121508 19 173 0.0 0.0 0.00 0.13 0.00 96 1015.9
20260510121009 19 173 0.0 0.0 0.00 0.13 0.00 96 1015.9
20260510120508 18 173 0.0 0.0 0.00 0.13 0.00 96 1015.9
20260510120011 18 173 0.0 0.0 0.00 0.13 0.00 96 1015.6
20260510115507 18 173 0.0 0.0 0.00 0.13 0.00 96 1015.5
20260510115009 18 173 0.0 0.0 0.00 0.13 0.00 96 1015.4
20260510114509 18 173 0.0 0.0 0.00 0.13 0.00 96 1015.2
20260510113508 18 119 0.0 0.0 0.00 0.13 0.00 96 1015.1
20260510113008 18 119 0.0 0.0 0.00 0.13 0.00 96 1015.1
20260510112007 18 119 0.0 0.0 0.00 0.13 0.00 95 1015.0
20260510111507 18 119 0.0 0.0 0.00 0.13 0.00 95 1014.9
20260510111008 18 119 0.0 0.0 0.00 0.13 0.00 95 1014.9
20260510110506 18 119 0.0 0.0 0.00 0.13 0.00 95 1014.9
20260510110008 18 119 0.0 0.0 0.00 0.13 0.00 95 1015.0
20260510105008 18 119 0.0 0.0 0.00 0.13 0.00 95 1015.1
20260510104509 18 119 0.0 0.0 0.00 0.13 0.00 95 1015.2
20260510104010 18 119 0.0 0.0 0.00 0.13 0.00 95 1015.2
20260510103010 18 119 0.0 0.0 0.00 0.13 0.00 95 1014.8
20260510102507 18 119 0.0 0.0 0.00 0.13 0.00 95 1014.8
20260510102008 18 119 0.0 0.0 0.00 0.13 0.00 95 1014.9
20260510101509 18 119 0.0 0.0 0.00 0.13 0.00 95 1014.9
20260510101008 18 119 0.0 0.0 0.00 0.13 0.00 95 1014.8
20260510100508 18 119 0.0 0.0 0.00 0.13 0.00 95 1014.4
20260510100009 18 119 0.0 0.0 0.00 0.13 0.00 95 1014.2
20260510094509 18 119 0.0 0.0 0.00 1.12 0.00 95 1014.0
20260510094008 18 119 0.0 0.0 0.00 1.12 0.00 95 1013.8
20260510093009 18 119 0.0 0.0 0.00 1.12 0.00 95 1013.7
20260510092508 18 119 0.0 0.0 0.00 1.12 0.00 95 1013.6
20260510092010 18 119 0.0 0.0 0.00 1.12 0.00 95 1013.5
20260510091510 18 119 0.0 0.0 0.00 1.12 0.00 95 1013.4
20260510091008 18 108 0.0 0.0 0.00 1.12 0.00 95 1013.3
20260510090008 18 107 0.0 0.0 0.00 1.24 0.00 95 1013.3
20260510085507 18 138 0.0 0.0 0.00 1.24 0.00 95 1013.1
20260510085007 18 190 0.0 0.0 0.00 1.24 0.00 95 1013.0
20260510084008 18 192 0.0 0.0 0.00 1.24 0.00 95 1012.9
20260510083505 18 192 0.0 0.0 0.00 1.24 0.00 95 1012.7
20260510082506 18 229 0.0 0.0 0.00 1.24 0.00 95 1012.8
20260510082008 18 229 0.0 0.0 0.00 1.24 0.00 95 1012.7
20260510081506 18 229 0.0 0.0 0.00 1.24 0.00 95 1012.7
20260510081007 18 259 0.0 0.0 0.00 1.24 0.00 95 1012.7
20260510080506 18 259 0.0 0.0 0.00 1.24 0.00 95 1012.8
20260510080009 18 193 0.0 0.0 0.00 1.24 0.00 95 1013.0
20260510075008 18 187 0.0 0.0 0.00 1.24 0.00 95 1012.9
20260510074507 18 186 0.0 0.0 0.00 1.24 0.00 95 1012.5
20260510074009 18 187 0.0 0.0 0.00 1.24 0.00 95 1012.8
20260510073508 18 229 0.0 0.0 0.00 1.24 0.00 95 1012.6
20260510073010 18 229 0.0 0.0 0.00 1.24 0.00 95 1012.6
20260510072507 18 107 0.0 1.6 0.00 1.24 0.00 95 1012.6
20260510072008 19 98 0.0 4.8 0.00 1.24 0.00 95 1012.7
20260510071008 18 238 0.0 4.8 0.00 1.24 0.00 95 1012.5
20260510070509 18 178 0.0 4.8 0.00 1.24 0.00 95 1012.5
20260510070009 18 179 1.6 6.4 0.00 1.24 0.00 95 1012.6
20260510065506 18 140 1.6 9.7 0.00 1.24 0.00 95 1012.6
20260510065006 18 106 0.0 6.4 0.00 1.24 0.00 95 1012.7
20260510064507 18 189 0.0 1.6 0.00 1.24 0.00 95 1012.8
20260510064006 18 188 0.0 3.2 0.00 1.24 0.00 95 1012.6
20260510063508 18 157 0.0 3.2 0.00 1.24 0.00 95 1012.6
20260510063008 18 132 0.0 1.6 0.00 1.24 0.00 95 1012.6
20260510062505 18 242 0.0 3.2 0.00 1.24 0.00 95 1012.5
20260510062009 18 242 1.6 4.8 0.00 1.24 0.00 95 1012.6
20260510061008 18 225 0.0 6.4 0.00 1.24 0.00 96 1012.7
20260510060506 18 98 0.0 0.0 0.00 1.24 0.00 96 1012.6
20260510060012 18 99 0.0 3.2 0.00 1.24 0.00 96 1012.5
20260510055510 18 99 0.0 3.2 0.00 1.24 0.00 96 1012.6
20260510054508 18 113 0.0 0.0 0.00 1.24 0.00 95 1012.5
20260510054009 18 113 0.0 0.0 0.00 1.24 0.00 95 1012.6
20260510053511 18 113 0.0 0.0 0.00 1.24 0.00 95 1012.5
20260510053010 18 113 0.0 0.0 0.00 1.24 0.00 95 1012.7
20260510052510 18 113 0.0 0.0 0.00 1.24 0.00 95 1012.7
20260510052011 18 113 0.0 0.0 0.00 1.24 0.00 95 1012.8
20260510051011 18 113 0.0 0.0 0.00 1.24 0.00 95 1012.7
20260510050510 18 113 0.0 0.0 0.00 1.24 0.00 95 1012.6
20260510050010 18 113 0.0 0.0 0.00 1.24 1.24 95 1012.7
20260510045507 18 113 0.0 0.0 0.00 1.24 1.24 95 1012.6
20260510045010 18 113 0.0 0.0 0.00 1.24 1.24 95 1012.8
20260510044009 18 128 0.0 0.0 0.00 1.24 1.24 95 1012.7
20260510043509 18 128 0.0 0.0 0.00 1.24 1.24 95 1012.8
20260510043010 18 128 0.0 0.0 0.00 1.24 1.24 95 1012.9
20260510042010 18 128 0.0 0.0 0.00 1.24 1.24 95 1012.8
20260510041508 18 128 0.0 0.0 0.00 1.24 1.24 95 1012.8
20260510041008 18 128 0.0 0.0 0.00 1.24 1.24 95 1012.8
20260510040507 18 128 0.0 0.0 0.00 1.24 1.24 95 1012.8
20260510040010 18 128 0.0 0.0 0.00 1.24 1.24 95 1012.8
20260510035008 18 144 0.0 0.0 0.00 1.24 1.24 95 1012.9
20260510034508 18 144 0.0 0.0 0.00 1.24 1.24 95 1013.0
20260510034010 18 144 0.0 4.8 0.00 1.24 1.24 95 1013.0
20260510033011 18 196 0.0 4.8 0.00 1.24 1.24 95 1012.9
20260510032508 18 153 0.0 4.8 0.00 1.24 1.24 95 1012.8
20260510032008 18 128 0.0 4.8 0.00 1.24 1.24 94 1012.7
20260510031508 18 128 0.0 4.8 0.00 1.24 1.24 94 1012.7
20260510031008 18 58 0.0 0.0 0.00 1.24 1.24 94 1012.6
20260510030508 18 75 0.0 0.0 0.00 1.24 1.24 94 1012.5
20260510030010 18 75 0.0 0.0 0.00 1.24 1.24 94 1012.4
20260510025507 18 75 0.0 0.0 0.00 1.24 1.24 94 1012.4
20260510025012 18 74 0.0 0.0 0.00 1.24 1.24 94 1012.4
20260510024010 18 75 0.0 0.0 0.00 1.24 1.24 94 1012.5
20260510023509 18 75 0.0 0.0 0.00 1.24 1.24 94 1012.4
20260510023010 18 75 0.0 0.0 0.00 1.24 1.24 94 1012.4
20260510022509 18 75 0.0 0.0 0.00 1.24 1.24 94 1012.6
20260510022009 18 75 0.0 0.0 0.00 1.24 1.24 94 1012.4
20260510021010 18 75 0.0 0.0 0.00 1.24 1.24 94 1012.3
20260510020508 18 75 0.0 0.0 0.00 1.24 1.24 94 1012.2
20260510020011 19 75 0.0 0.0 0.00 1.24 1.24 94 1012.1
20260510015507 19 75 0.0 0.0 0.00 1.24 1.24 94 1012.2
20260510015009 19 75 0.0 0.0 0.00 1.24 1.24 94 1012.1
20260510014508 19 75 0.0 0.0 0.00 1.24 1.24 93 1012.1
20260510014010 19 75 0.0 0.0 0.00 1.24 1.24 93 1011.9
20260510013509 19 75 0.0 0.0 0.00 1.24 1.24 93 1011.9
20260510013009 19 74 0.0 0.0 0.00 1.24 1.24 93 1011.8
20260510012507 19 75 0.0 0.0 0.00 1.24 1.24 93 1011.6
20260510012008 19 75 0.0 0.0 0.00 1.24 1.24 93 1011.4
20260510011508 19 75 0.0 3.2 0.00 1.24 1.24 93 1011.4
20260510011009 19 75 0.0 3.2 0.00 1.24 1.24 93 1011.5
20260510010508 20 75 0.0 1.6 0.00 1.24 1.24 93 1011.5
20260510005507 20 101 0.0 0.0 0.00 1.24 1.24 93 1011.1
20260510005008 20 101 0.0 1.6 0.00 1.24 1.24 93 1011.2
20260510004508 20 101 0.0 3.2 0.00 1.24 1.24 93 1011.1
20260510004009 20 101 0.0 3.2 0.00 1.24 1.24 93 1011.2
20260510003507 20 105 0.0 3.2 0.00 1.24 1.24 93 1011.3
20260510003008 20 114 0.0 0.0 0.00 1.24 1.24 93 1011.0
20260510002508 20 114 0.0 0.0 0.00 1.24 1.24 93 1011.1
20260510002009 20 199 0.0 0.0 0.00 1.24 1.24 93 1011.2
20260510001507 20 199 0.0 0.0 0.00 1.24 1.24 93 1011.2
20260510001008 20 199 0.0 0.0 0.00 1.24 1.24 93 1011.2
20260510000507 20 261 0.0 0.0 0.00 1.24 1.24 93 1011.4
20260510000009 20 261 0.0 0.0 0.00 1.24 1.24 93 1011.5
20260509235507 20 261 0.0 0.0 0.00 1.24 1.24 92 1011.2
20260509235008 20 13 0.0 0.0 0.00 1.24 1.24 92 1011.2
20260509234508 20 13 0.0 0.0 0.00 1.24 1.24 92 1010.9
20260509234008 20 124 0.0 0.0 0.00 1.24 1.24 92 1010.6
20260509233009 20 141 0.0 1.6 0.00 1.24 1.24 91 1011.1
20260509232508 20 141 1.6 3.2 0.00 1.24 1.24 91 1011.4
20260509232009 20 141 1.6 4.8 0.00 1.24 1.24 91 1011.3
20260509231509 20 267 1.6 6.4 0.00 1.24 1.24 91 1011.3
20260509231009 20 161 3.2 6.4 0.00 1.24 1.24 91 1011.1
20260509230508 20 170 1.6 6.4 0.00 1.24 1.24 90 1011.2
20260509230013 20 253 3.2 12.9 0.00 1.24 1.24 91 1011.1
20260509225509 20 196 1.6 12.9 0.00 1.24 1.24 90 1011.0
20260509224510 20 219 1.6 4.8 0.00 1.24 1.24 91 1011.2
20260509224010 20 159 1.6 4.8 0.00 1.24 1.24 92 1011.2
20260509223509 20 161 1.6 4.8 0.00 1.24 1.24 92 1011.1
20260509223010 21 261 1.6 6.4 0.00 1.24 1.24 92 1011.2
20260509222509 20 197 1.6 12.9 0.00 1.24 1.24 91 1011.1
20260509222012 21 212 1.6 12.9 0.00 1.24 1.24 92 1011.2
20260509221510 21 126 0.0 3.2 0.00 1.24 1.24 92 1011.0
20260509221011 21 242 0.0 3.2 0.00 1.24 1.24 92 1011.0
20260509220012 21 98 0.0 4.8 0.00 1.24 1.24 92 1010.9
20260509215507 21 88 1.6 6.4 0.00 1.24 1.24 91 1010.8
20260509215009 21 88 0.0 6.4 0.00 1.24 1.24 91 1010.6
20260509214509 21 205 0.0 6.4 0.00 1.24 1.24 91 1011.0
20260509214009 21 130 0.0 3.2 0.00 1.24 1.24 92 1010.9
20260509213508 21 130 0.0 3.2 0.00 1.24 1.24 92 1010.9
20260509212508 21 86 0.0 0.0 0.00 1.24 1.24 93 1011.0
20260509212009 21 86 0.0 0.0 0.00 1.24 1.24 93 1011.0
20260509211508 21 93 0.0 0.0 0.00 1.24 1.24 93 1010.9
20260509211010 21 93 0.0 3.2 0.00 1.24 1.24 92 1011.1
20260509210508 21 88 1.6 6.4 0.00 1.24 1.24 92 1011.0
20260509205508 21 77 0.0 3.2 0.00 1.24 1.24 93 1011.0
20260509205008 21 108 0.0 0.0 0.00 1.24 1.24 93 1010.9
20260509204508 21 111 0.0 0.0 0.03 1.24 1.24 93 1011.0
20260509204008 21 74 0.0 0.0 0.05 1.24 1.24 93 1011.1
20260509203011 21 86 0.0 0.0 0.13 1.24 1.24 93 1011.2
20260509202508 21 104 0.0 0.0 0.13 1.24 1.24 93 1011.2
20260509202008 21 120 0.0 0.0 0.13 1.24 1.24 93 1011.2
20260509201508 21 119 0.0 3.2 0.13 1.24 1.24 93 1011.2
20260509201008 21 120 0.0 4.8 0.13 1.24 1.24 92 1011.3
20260509200508 21 106 0.0 3.2 0.13 1.24 1.24 92 1011.3
20260509200012 21 355 0.0 3.2 0.13 1.24 1.24 92 1011.3
20260509195508 21 355 0.0 3.2 0.13 1.24 1.24 91 1011.3
20260509195009 21 17 1.6 8.0 0.13 1.24 1.24 90 1011.2
20260509194509 21 98 1.6 8.0 0.10 1.22 1.22 90 1011.2
20260509194009 21 111 1.6 6.4 0.08 1.19 1.19 89 1011.2